EW0600 Weather Reports


Display with metric or nautical units.
time (UTC)temp
F
wind
direction
speed
MPH
gust
MPH
rain 1hr
in
rain 24hr
in
rain mn
in
humidity
%
barometer
mb
20260901112743 61 167 0.0 0.0 0.00 0.00 0.00 98 1009.7
20260901111756 61 167 0.0 1.0 0.00 0.00 0.00 98 1009.6
20260901111602 60 167 0.0 0.0 0.00 0.00 0.00 98 1009.6
20260901110756 61 167 0.0 0.0 0.00 0.00 0.00 98 1009.4
20260901110003 60 167 0.0 1.0 0.00 0.00 0.00 98 1009.3
20260901105747 61 167 0.0 0.0 0.00 0.00 0.00 98 1009.3
20260901104607 61 167 0.0 1.0 0.00 0.00 0.00 98 1009.3
20260901103549 61 167 0.0 2.0 0.00 0.00 0.00 98 1009.3
20260901103006 60 167 0.0 2.0 0.00 0.00 0.00 98 1009.4
20260901101503 60 108 2.0 3.0 0.00 0.00 0.00 97 1009.3
20260901100415 61 108 0.0 0.0 0.00 0.00 0.00 98 1009.2
20260901100107 60 108 0.0 0.0 0.00 0.00 0.00 98 1009.2
20260901095339 61 108 0.0 0.0 0.00 0.00 0.00 98 1009.1
20260901094508 61 108 0.0 0.0 0.00 0.00 0.00 98 1009.1
20260901094325 61 108 0.0 0.0 0.00 0.00 0.00 98 1009.1
20260901093249 61 108 0.0 0.0 0.00 0.00 0.00 97 1009.1
20260901093107 60 108 0.0 1.0 0.00 0.00 0.00 97 1009.1
20260901092247 62 108 0.0 0.0 0.00 0.00 0.00 98 1009.1
20260901091614 61 108 0.0 1.0 0.00 0.00 0.00 98 1009.2
20260901090110 61 108 0.0 0.0 0.00 0.00 0.00 97 1009.1
20260901090008 61 108 0.0 0.0 0.00 0.00 0.00 97 1009.1
20260901084602 61 108 0.0 0.0 0.00 0.00 0.00 97 1009.1
20260901083904 62 108 0.0 0.0 0.00 0.00 0.00 97 1009.1
20260901083010 62 108 0.0 0.0 0.00 0.00 0.00 97 1009.1
20260901082920 62 108 0.0 0.0 0.00 0.00 0.00 97 1009.1
20260901081603 62 108 0.0 0.0 0.00 0.00 0.00 97 1009.1
20260901080752 62 108 0.0 0.0 0.00 0.00 0.00 97 1009.0
20260901080003 62 108 0.0 0.0 0.00 0.00 0.00 96 1009.0
20260901075752 62 108 0.0 0.0 0.00 0.00 0.00 96 1009.0
20260901074800 63 108 0.0 0.0 0.00 0.00 0.00 97 1008.9
20260901074603 62 108 0.0 2.0 0.00 0.00 0.00 97 1008.9
20260901073810 63 108 0.0 0.0 0.00 0.00 0.00 96 1008.9
20260901073002 63 108 0.0 1.0 0.00 0.00 0.00 97 1008.9
20260901072828 63 108 0.0 0.0 0.00 0.00 0.00 97 1009.0
20260901071836 63 108 0.0 1.0 0.00 0.00 0.00 97 1009.0
20260901071606 62 108 1.0 2.0 0.00 0.00 0.00 96 1009.2
20260901070818 63 183 0.0 0.0 0.00 0.00 0.00 97 1009.2
20260901070002 62 213 0.0 1.0 0.00 0.00 0.00 96 1009.5
20260901065803 63 213 0.0 0.0 0.00 0.00 0.00 95 1009.5
20260901064738 63 213 0.0 0.0 0.00 0.00 0.00 96 1009.4
20260901064602 63 213 0.0 0.0 0.00 0.00 0.00 96 1009.4
20260901063758 64 213 0.0 0.0 0.00 0.00 0.00 96 1009.4
20260901063006 63 213 0.0 0.0 0.00 0.00 0.00 97 1009.6
20260901062729 64 213 0.0 0.0 0.00 0.00 0.00 96 1009.5
20260901061603 64 213 0.0 0.0 0.00 0.00 0.00 96 1009.7
20260901060002 64 213 0.0 1.0 0.00 0.00 0.00 96 1009.5
20260901054605 63 213 0.0 1.0 0.00 0.00 0.00 95 1009.4
20260901054407 64 213 0.0 0.0 0.00 0.00 0.00 95 1009.4
20260901053407 65 200 0.0 0.0 0.00 0.00 0.00 95 1009.2
20260901053004 64 200 0.0 0.0 0.00 0.00 0.00 94 1009.3
20260901052417 65 200 0.0 0.0 0.00 0.00 0.00 95 1009.1
20260901051610 65 200 0.0 1.0 0.00 0.00 0.00 95 1009.0
20260901051427 65 200 0.0 0.0 0.00 0.00 0.00 95 1008.9
20260901050002 64 202 1.0 2.0 0.00 0.00 0.00 95 1008.8
20260901044505 65 205 2.0 3.0 0.00 0.00 0.00 94 1008.6
20260901044341 65 205 1.0 2.0 0.00 0.00 0.00 93 1008.5
20260901043320 66 56 0.0 2.0 0.00 0.00 0.00 94 1008.4
20260901043104 65 56 1.0 3.0 0.00 0.00 0.00 94 1008.4
20260901042306 66 56 0.0 0.0 0.00 0.00 0.00 93 1008.3
20260901041502 66 56 0.0 0.0 0.00 0.00 0.00 93 1008.4
20260901040110 67 56 0.0 2.0 0.00 0.00 0.00 93 1008.5
20260901034505 67 233 0.0 2.0 0.00 0.00 0.00 92 1008.5
20260901033842 68 233 0.0 0.0 0.00 0.00 0.00 91 1008.6
20260901033107 68 233 0.0 1.0 0.00 0.00 0.00 92 1008.6
20260901032805 68 233 0.0 0.0 0.00 0.00 0.00 91 1008.6
20260901031800 69 233 0.0 1.0 0.00 0.00 0.00 90 1008.5
20260901031503 69 233 0.0 1.0 0.00 0.00 0.00 88 1008.6
20260901030821 70 233 0.0 0.0 0.00 0.00 0.00 88 1008.4
20260901025833 71 233 0.0 0.0 0.00 0.00 0.00 88 1008.3
20260901024821 71 233 0.0 0.0 0.00 0.00 0.00 87 1008.3
20260901024503 71 233 0.0 1.0 0.00 0.00 0.00 87 1008.3
20260901023829 71 233 0.0 0.0 0.00 0.00 0.00 87 1008.2
20260901023103 71 233 0.0 1.0 0.00 0.00 0.00 86 1008.4
20260901022804 72 233 0.0 0.0 0.00 0.00 0.00 86 1008.3
20260901021818 72 233 0.0 0.0 0.00 0.00 0.00 85 1008.1
20260901021505 72 233 0.0 2.0 0.00 0.00 0.00 85 1008.2
20260901020838 73 233 1.0 1.0 0.00 0.00 0.00 85 1008.0
20260901020105 72 243 1.0 2.0 0.00 0.00 0.00 84 1008.2
20260901015830 73 243 0.0 1.0 0.00 0.00 0.00 84 1008.1
20260901014809 73 246 0.0 1.0 0.00 0.00 0.00 82 1007.9
20260901014502 73 246 1.0 2.0 0.00 0.00 0.00 82 1008.0
20260901013822 74 246 0.0 0.0 0.00 0.00 0.00 82 1007.9
20260901013107 74 246 0.0 2.0 0.00 0.00 0.00 81 1007.8
20260901012837 74 246 0.0 0.0 0.00 0.00 0.00 81 1007.7
20260901011823 75 246 0.0 1.0 0.00 0.00 0.00 80 1007.6
20260901011502 75 242 1.0 2.0 0.00 0.00 0.00 80 1007.6
20260901010838 76 255 0.0 0.0 0.00 0.00 0.00 79 1007.4
20260901010106 76 251 1.0 2.0 0.00 0.00 0.00 79 1007.6
20260901005807 76 251 0.0 2.0 0.00 0.00 0.00 79 1007.5
20260901004802 77 282 2.0 3.0 0.00 0.00 0.00 78 1007.5
20260901004502 77 269 3.0 4.0 0.00 0.00 0.00 77 1007.5
20260901003824 78 252 1.0 3.0 0.00 0.00 0.00 78 1007.4
20260901003102 78 252 2.0 5.0 0.00 0.00 0.00 77 1007.5
20260901002800 79 258 3.0 5.0 0.00 0.00 0.00 76 1007.3
20260901001735 80 283 3.0 5.0 0.00 0.00 0.00 74 1007.3
20260901001503 80 282 4.0 5.0 0.00 0.00 0.00 74 1007.4
20260901000721 81 283 3.0 6.0 0.00 0.00 0.00 73 1007.3
20260901000106 81 298 4.0 8.0 0.00 0.00 0.00 72 1007.3
20260831235708 82 293 4.0 7.0 0.00 0.00 0.00 72 1007.2
20260831234638 82 297 4.0 7.0 0.00 0.00 0.00 72 1007.1
20260831234502 82 281 4.0 8.0 0.00 0.00 0.00 72 1007.2
20260831233656 82 297 4.0 7.0 0.00 0.00 0.00 72 1007.1
20260831233108 82 316 5.0 9.0 0.00 0.00 0.00 70 1007.1
20260831232643 83 307 5.0 8.0 0.00 0.00 0.00 68 1007.1
20260831231653 84 291 7.0 11.0 0.00 0.00 0.00 68 1007.1
20260831231502 83 320 6.0 12.0 0.00 0.00 0.00 67 1007.1
20260831230658 84 304 6.0 11.0 0.00 0.00 0.00 67 1007.1
20260831225649 85 311 4.0 7.0 0.00 0.00 0.00 68 1007.2
20260831224651 86 283 2.0 6.0 0.00 0.00 0.00 65 1006.9
20260831224502 86 299 2.0 5.0 0.00 0.00 0.00 64 1006.9
20260831223630 85 293 3.0 6.0 0.00 0.00 0.00 63 1007.0
20260831223103 85 288 3.0 7.0 0.00 0.00 0.00 63 1007.0
20260831222556 86 283 2.0 4.0 0.00 0.00 0.00 65 1006.9
20260831221618 86 301 2.0 4.0 0.00 0.00 0.00 67 1006.8
20260831221502 86 295 3.0 5.0 0.00 0.00 0.00 65 1006.8
20260831220556 87 285 3.0 5.0 0.00 0.00 0.00 63 1006.7
20260831220104 86 284 4.0 7.0 0.00 0.00 0.00 58 1006.7
20260831214503 86 287 4.0 8.0 0.00 0.00 0.00 60 1006.7
20260831214403 87 287 4.0 7.0 0.00 0.00 0.00 60 1006.7
20260831213411 88 274 4.0 7.0 0.00 0.00 0.00 54 1006.5
20260831213106 87 278 3.0 8.0 0.00 0.00 0.00 56 1006.5
20260831211505 87 285 4.0 9.0 0.00 0.00 0.00 58 1006.5
20260831211210 87 282 4.0 8.0 0.00 0.00 0.00 62 1006.4
20260831210134 87 266 4.0 7.0 0.00 0.00 0.00 62 1006.4
20260831210103 87 304 5.0 8.0 0.00 0.00 0.00 61 1006.4
20260831205058 87 270 3.0 9.0 0.00 0.00 0.00 63 1006.3
20260831204509 86 298 5.0 10.0 0.00 0.00 0.00 64 1006.3
20260831204021 87 296 5.0 9.0 0.00 0.00 0.00 65 1006.2
20260831203103 86 302 5.0 8.0 0.00 0.00 0.00 65 1006.4
20260831203019 87 290 4.0 8.0 0.00 0.00 0.00 64 1006.3
20260831201953 87 257 3.0 8.0 0.00 0.00 0.00 66 1006.3
20260831201502 86 281 3.0 9.0 0.00 0.00 0.00 67 1006.4
20260831200932 87 320 3.0 6.0 0.00 0.00 0.00 67 1006.4
20260831195902 87 277 3.0 7.0 0.00 0.00 0.00 67 1006.3
20260831194908 87 275 3.0 7.0 0.00 0.00 0.00 66 1006.4
20260831194503 86 290 3.0 8.0 0.00 0.00 0.00 65 1006.4
20260831193857 86 301 3.0 7.0 0.00 0.00 0.00 67 1006.3
20260831193103 86 322 2.0 8.0 0.00 0.00 0.00 63 1006.3
20260831191502 85 314 4.0 10.0 0.00 0.00 0.00 63 1006.2
20260831190608 86 271 2.0 6.0 0.00 0.00 0.00 69 1006.2
20260831185552 85 316 3.0 8.0 0.00 0.00 0.00 70 1006.2
20260831184502 84 321 6.0 11.0 0.00 0.00 0.00 65 1006.2
20260831183400 84 325 5.0 10.0 0.00 0.00 0.00 69 1006.2
20260831183102 83 331 4.0 11.0 0.00 0.00 0.00 73 1006.2
20260831182333 84 297 5.0 10.0 0.00 0.00 0.00 71 1006.2
20260831181503 83 290 5.0 11.0 0.00 0.00 0.00 73 1006.2
20260831181353 84 311 4.0 10.0 0.00 0.00 0.00 73 1006.2
20260831180347 83 325 1.0 6.0 0.00 0.00 0.00 78 1006.2
20260831175342 83 330 2.0 6.0 0.00 0.00 0.00 79 1006.3
20260831174502 82 350 3.0 7.0 0.00 0.00 0.00 80 1006.5
20260831174343 83 34 3.0 6.0 0.00 0.00 0.00 80 1006.5
20260831173403 82 275 3.0 6.0 0.00 0.00 0.00 84 1006.6
20260831173105 81 314 3.0 7.0 0.00 0.00 0.00 83 1006.6
20260831172359 81 276 5.0 9.0 0.00 0.00 0.00 82 1006.7
20260831171503 81 312 6.0 10.0 0.00 0.00 0.00 83 1006.7
20260831171350 81 299 6.0 9.0 0.00 0.00 0.00 84 1006.6
20260831170403 81 316 6.0 10.0 0.00 0.00 0.00 83 1006.6
20260831170107 81 292 7.0 11.0 0.00 0.00 0.00 84 1006.7
20260831165408 81 322 7.0 11.0 0.00 0.00 0.00 82 1006.6
20260831164502 81 322 6.0 12.0 0.00 0.00 0.00 84 1006.6
20260831164355 81 326 5.0 11.0 0.00 0.00 0.00 84 1006.6
20260831163002 80 340 5.0 8.0 0.00 0.00 0.00 84 1006.4
20260831162140 81 289 4.0 6.0 0.00 0.00 0.00 85 1006.3
20260831161605 80 307 3.0 7.0 0.00 0.00 0.00 86 1006.3
20260831161113 80 336 3.0 7.0 0.00 0.00 0.00 86 1006.1
20260831160125 80 329 4.0 8.0 0.00 0.00 0.00 86 1006.0
20260831160008 79 341 5.0 9.0 0.00 0.00 0.00 87 1006.2
20260831155141 79 329 5.0 8.0 0.00 0.00 0.00 87 1006.1
20260831154610 79 308 5.0 9.0 0.00 0.00 0.00 87 1006.2
20260831154135 80 328 4.0 8.0 0.00 0.00 0.00 86 1006.0
20260831153105 79 297 4.0 8.0 0.00 0.00 0.00 89 1006.0
20260831153003 79 287 3.0 9.0 0.00 0.00 0.00 89 1006.1
20260831152103 79 316 4.0 7.0 0.00 0.00 0.00 88 1006.0
20260831151604 78 296 5.0 8.0 0.00 0.00 0.00 88 1006.1
20260831151041 78 326 4.0 9.0 0.00 0.00 0.00 89 1005.8
20260831150059 78 285 5.0 9.0 0.00 0.00 0.00 89 1006.0
20260831150007 77 288 5.0 10.0 0.00 0.00 0.00 90 1006.0
20260831144502 76 284 4.0 9.0 0.00 0.00 0.00 90 1005.9
20260831143956 77 293 4.0 8.0 0.00 0.00 0.00 90 1005.7
20260831142946 76 280 4.0 6.0 0.00 0.00 0.00 91 1005.5
20260831141922 76 281 4.0 6.0 0.00 0.00 0.00 91 1005.2
20260831140941 75 285 5.0 8.0 0.00 0.00 0.00 91 1005.1
20260831135911 75 276 3.0 8.0 0.00 0.00 0.00 91 1005.1
20260831133753 74 279 3.0 7.0 0.00 0.00 0.00 92 1004.8
20260831133102 74 279 5.0 8.0 0.00 0.00 0.00 92 1004.9
20260831132753 74 227 3.0 7.0 0.00 0.00 0.00 93 1004.8
20260831131503 73 243 5.0 7.0 0.00 0.00 0.00 93 1004.7
20260831130614 73 237 3.0 5.0 0.00 0.00 0.00 94 1004.6
20260831125547 72 246 2.0 5.0 0.00 0.00 0.00 94 1004.5
20260831124504 72 233 3.0 4.0 0.00 0.00 0.00 94 1004.4
20260831123436 72 238 2.0 4.0 0.00 0.00 0.00 95 1004.2
20260831123103 71 226 2.0 5.0 0.00 0.00 0.00 95 1004.3
20260831122427 71 227 2.0 4.0 0.00 0.00 0.00 95 1004.3
20260831121502 71 222 3.0 5.0 0.00 0.00 0.00 95 1004.2
20260831121445 71 243 3.0 4.0 0.00 0.00 0.00 95 1004.1
20260831120420 71 233 2.0 4.0 0.00 0.00 0.00 95 1004.1
20260831115424 71 243 2.0 4.0 0.00 0.00 0.00 95 1004.0
20260831114505 71 245 3.0 5.0 0.00 0.00 0.00 95 1003.8
20260831113320 71 235 2.0 6.0 0.00 0.00 0.00 95 1003.5
20260831113102 71 238 2.0 5.0 0.00 0.00 0.00 95 1003.5